Time,TemperatureF,DewpointF,PressureIn,WindDirection,WindDirectionDegrees,WindSpeedMPH,WindSpeedGustMPH,Humidity,HourlyPrecipIn,Conditions,Clouds,dailyrainin,SolarRadiationWatts/m^2,SoftwareType,DateUTC
2015-03-29 00:04:00,34.1,12.3,29.39,North,32767,0.0,0.0,40,0.00,,,0.00,0,Wunderground v.1.15,2015-03-29 04:04:00,
2015-03-29 00:10:00,33.6,12.4,29.40,North,32767,0.0,0.0,41,0.00,,,0.00,0,Wunderground v.1.15,2015-03-29 04:10:00,
2015-03-29 00:16:00,33.3,12.6,29.40,North,32767,0.0,0.0,42,0.00,,,0.00,0,Wunderground v.1.15,2015-03-29 04:16:00,
2015-03-29 00:22:00,32.9,12.8,29.39,North,32767,0.0,0.0,43,0.00,,,0.00,0,Wunderground v.1.15,2015-03-29 04:22:00,
2015-03-29 00:27:00,32.7,12.6,29.39,North,32767,0.0,0.0,43,0.00,,,0.00,0,Wunderground v.1.15,2015-03-29 04:27:00,
2015-03-29 00:32:00,32.6,13.1,29.41,North,32767,0.0,0.0,44,0.00,,,0.00,0,Wunderground v.1.15,2015-03-29 04:32:00,
2015-03-29 00:38:00,32.5,13.0,29.41,North,32767,0.0,0.0,44,0.00,,,0.00,0,Wunderground v.1.15,2015-03-29 04:38:00,
2015-03-29 00:43:00,32.5,13.5,29.41,North,32767,0.0,0.0,45,0.00,,,0.00,0,Wunderground v.1.15,2015-03-29 04:43:00,
2015-03-29 00:49:00,32.5,13.0,29.40,North,32767,0.0,0.0,44,0.00,,,0.00,0,Wunderground v.1.15,2015-03-29 04:49:00,
2015-03-29 00:54:00,32.5,12.5,29.41,North,32767,0.0,0.0,43,0.00,,,0.00,0,Wunderground v.1.15,2015-03-29 04:54:00,
2015-03-29 01:00:00,32.5,13.0,29.41,North,32767,0.0,0.0,44,0.00,,,0.00,0,Wunderground v.1.15,2015-03-29 05:00:00,
2015-03-29 01:05:00,32.4,12.4,29.40,North,32767,0.0,0.0,43,0.00,,,0.00,0,Wunderground v.1.15,2015-03-29 05:05:00,
2015-03-29 01:10:00,32.4,12.4,29.41,North,32767,0.0,0.0,43,0.00,,,0.00,0,Wunderground v.1.15,2015-03-29 05:10:00,
2015-03-29 01:17:00,32.3,11.7,29.41,North,32767,0.0,0.0,42,0.00,,,0.00,0,Wunderground v.1.15,2015-03-29 05:17:00,
2015-03-29 01:22:00,32.2,12.7,29.41,North,32767,0.0,0.0,44,0.00,,,0.00,0,Wunderground v.1.15,2015-03-29 05:22:00,
2015-03-29 01:27:00,32.0,12.5,29.41,North,32767,0.0,0.0,44,0.00,,,0.00,0,Wunderground v.1.15,2015-03-29 05:27:00,
2015-03-29 01:32:00,31.9,12.4,29.41,North,32767,0.0,0.0,44,0.00,,,0.00,0,Wunderground v.1.15,2015-03-29 05:32:00,
2015-03-29 01:37:00,31.8,12.3,29.42,North,32767,0.0,0.0,44,0.00,,,0.00,0,Wunderground v.1.15,2015-03-29 05:37:00,
2015-03-29 01:43:00,31.6,12.2,29.42,North,32767,0.0,0.0,44,0.00,,,0.00,0,Wunderground v.1.15,2015-03-29 05:43:00,
2015-03-29 01:48:00,31.5,13.1,29.41,North,32767,0.0,0.0,46,0.00,,,0.00,0,Wunderground v.1.15,2015-03-29 05:48:00,
2015-03-29 01:53:00,31.2,12.8,29.42,North,32767,0.0,0.0,46,0.00,,,0.00,0,Wunderground v.1.15,2015-03-29 05:53:00,
2015-03-29 01:58:00,31.1,13.2,29.42,North,32767,0.0,0.0,47,0.00,,,0.00,0,Wunderground v.1.15,2015-03-29 05:58:00,
2015-03-29 02:04:00,30.8,12.4,29.42,North,32767,0.0,0.0,46,0.00,,,0.00,0,Wunderground v.1.15,2015-03-29 06:04:00,
2015-03-29 02:09:00,30.7,12.3,29.42,North,32767,0.0,0.0,46,0.00,,,0.00,0,Wunderground v.1.15,2015-03-29 06:09:00,
2015-03-29 02:15:00,30.6,11.7,29.43,North,32767,0.0,0.0,45,0.00,,,0.00,0,Wunderground v.1.15,2015-03-29 06:15:00,
2015-03-29 02:21:00,30.5,12.2,29.43,North,32767,0.0,0.0,46,0.00,,,0.00,0,Wunderground v.1.15,2015-03-29 06:21:00,
2015-03-29 02:27:00,30.4,12.5,29.42,North,32767,0.0,0.0,47,0.00,,,0.00,0,Wunderground v.1.15,2015-03-29 06:27:00,
2015-03-29 02:32:00,30.2,12.8,29.41,North,32767,0.0,0.0,48,0.00,,,0.00,0,Wunderground v.1.15,2015-03-29 06:32:00,
2015-03-29 02:37:00,30.0,13.1,29.42,North,32767,0.0,0.0,49,0.00,,,0.00,0,Wunderground v.1.15,2015-03-29 06:37:00,
2015-03-29 02:42:00,29.9,13.0,29.42,North,32767,0.0,0.0,49,0.00,,,0.00,0,Wunderground v.1.15,2015-03-29 06:42:00,
2015-03-29 02:47:00,29.7,12.8,29.43,North,32767,0.0,0.0,49,0.00,,,0.00,0,Wunderground v.1.15,2015-03-29 06:47:00,
2015-03-29 02:53:00,29.6,12.8,29.42,North,32767,0.0,0.0,49,0.00,,,0.00,0,Wunderground v.1.15,2015-03-29 06:53:00,
2015-03-29 02:59:00,29.4,12.6,29.43,North,32767,0.0,0.0,49,0.00,,,0.00,0,Wunderground v.1.15,2015-03-29 06:59:00,
2015-03-29 03:06:00,29.3,12.0,29.43,North,32767,0.0,0.0,48,0.00,,,0.00,0,Wunderground v.1.15,2015-03-29 07:06:00,
2015-03-29 03:11:00,29.3,12.5,29.43,North,32767,0.0,0.0,49,0.00,,,0.00,0,Wunderground v.1.15,2015-03-29 07:11:00,
2015-03-29 03:16:00,29.3,12.5,29.42,North,32767,0.0,0.0,49,0.00,,,0.00,0,Wunderground v.1.15,2015-03-29 07:16:00,
2015-03-29 03:22:00,29.2,12.4,29.43,North,32767,0.0,0.0,49,0.00,,,0.00,0,Wunderground v.1.15,2015-03-29 07:22:00,
2015-03-29 03:28:00,29.3,12.5,29.43,North,32767,0.0,0.0,49,0.00,,,0.00,0,Wunderground v.1.15,2015-03-29 07:28:00,
2015-03-29 03:34:00,29.4,13.0,29.42,North,32767,0.0,0.0,50,0.00,,,0.00,0,Wunderground v.1.15,2015-03-29 07:34:00,
2015-03-29 03:39:00,29.4,13.0,29.43,North,32767,0.0,0.0,50,0.00,,,0.00,0,Wunderground v.1.15,2015-03-29 07:39:00,
2015-03-29 03:44:00,29.3,12.9,29.44,North,32767,0.0,0.0,50,0.00,,,0.00,0,Wunderground v.1.15,2015-03-29 07:44:00,
2015-03-29 03:49:00,29.4,13.0,29.43,North,32767,0.0,0.0,50,0.00,,,0.00,0,Wunderground v.1.15,2015-03-29 07:49:00,
2015-03-29 03:54:00,29.4,13.0,29.44,North,32767,0.0,0.0,50,0.00,,,0.00,0,Wunderground v.1.15,2015-03-29 07:54:00,
2015-03-29 03:59:00,29.4,13.0,29.43,North,32767,0.0,0.0,50,0.00,,,0.00,0,Wunderground v.1.15,2015-03-29 07:59:00,
2015-03-29 04:06:00,29.4,13.0,29.44,North,32767,0.0,0.0,50,0.00,,,0.00,0,Wunderground v.1.15,2015-03-29 08:06:00,
2015-03-29 04:11:00,29.3,13.4,29.44,North,32767,0.0,0.0,51,0.00,,,0.00,0,Wunderground v.1.15,2015-03-29 08:11:00,
2015-03-29 04:16:00,29.0,12.7,29.43,North,32767,0.0,0.0,50,0.00,,,0.00,0,Wunderground v.1.15,2015-03-29 08:16:00,
2015-03-29 04:22:00,28.8,12.9,29.43,North,32767,0.0,0.0,51,0.00,,,0.00,0,Wunderground v.1.15,2015-03-29 08:22:00,
2015-03-29 04:28:00,28.7,12.8,29.44,North,32767,0.0,0.0,51,0.00,,,0.00,0,Wunderground v.1.15,2015-03-29 08:28:00,
2015-03-29 04:33:00,28.5,13.1,29.45,North,32767,0.0,0.0,52,0.00,,,0.00,0,Wunderground v.1.15,2015-03-29 08:33:00,
2015-03-29 04:39:00,28.4,13.0,29.44,North,32767,0.0,0.0,52,0.00,,,0.00,0,Wunderground v.1.15,2015-03-29 08:39:00,
2015-03-29 04:45:00,28.2,12.8,29.46,North,32767,0.0,0.0,52,0.00,,,0.00,0,Wunderground v.1.15,2015-03-29 08:45:00,
2015-03-29 04:50:00,28.2,12.8,29.46,North,32767,0.0,0.0,52,0.00,,,0.00,0,Wunderground v.1.15,2015-03-29 08:50:00,
2015-03-29 04:55:00,28.0,13.1,29.46,North,32767,0.0,0.0,53,0.00,,,0.00,0,Wunderground v.1.15,2015-03-29 08:55:00,
2015-03-29 05:00:00,27.9,13.0,29.45,North,32767,0.0,0.0,53,0.00,,,0.00,0,Wunderground v.1.15,2015-03-29 09:00:00,
2015-03-29 05:07:00,27.9,13.0,29.46,North,32767,0.0,0.0,53,0.00,,,0.00,0,Wunderground v.1.15,2015-03-29 09:07:00,
2015-03-29 05:12:00,27.8,12.4,29.46,North,32767,0.0,0.0,52,0.00,,,0.00,0,Wunderground v.1.15,2015-03-29 09:12:00,
2015-03-29 05:18:00,27.7,12.3,29.46,North,32767,0.0,0.0,52,0.00,,,0.00,0,Wunderground v.1.15,2015-03-29 09:18:00,
2015-03-29 05:23:00,27.6,12.2,29.45,North,32767,0.0,0.0,52,0.00,,,0.00,0,Wunderground v.1.15,2015-03-29 09:23:00,
2015-03-29 05:28:00,27.5,13.0,29.47,North,32767,0.0,0.0,54,0.00,,,0.00,0,Wunderground v.1.15,2015-03-29 09:28:00,
2015-03-29 05:34:00,27.6,15.5,29.47,North,32767,0.0,0.0,60,0.00,,,0.00,0,Wunderground v.1.15,2015-03-29 09:34:00,
2015-03-29 05:40:00,27.2,15.1,29.47,North,32767,0.0,0.0,60,0.00,,,0.00,0,Wunderground v.1.15,2015-03-29 09:40:00,
2015-03-29 05:45:00,26.9,14.1,29.46,North,32767,0.0,0.0,58,0.00,,,0.00,0,Wunderground v.1.15,2015-03-29 09:45:00,
2015-03-29 05:51:00,26.4,13.2,29.47,North,32767,0.0,0.0,57,0.00,,,0.00,0,Wunderground v.1.15,2015-03-29 09:51:00,
2015-03-29 05:56:00,26.1,13.3,29.47,North,32767,0.0,0.0,58,0.00,,,0.00,0,Wunderground v.1.15,2015-03-29 09:56:00,
2015-03-29 06:02:00,25.9,13.1,29.47,North,32767,0.0,0.0,58,0.00,,,0.00,0,Wunderground v.1.15,2015-03-29 10:02:00,
2015-03-29 06:07:00,25.8,13.0,29.47,North,32767,0.0,0.0,58,0.00,,,0.00,0,Wunderground v.1.15,2015-03-29 10:07:00,
2015-03-29 06:13:00,25.9,13.1,29.48,North,32767,0.0,0.0,58,0.00,,,0.00,0,Wunderground v.1.15,2015-03-29 10:13:00,
2015-03-29 06:18:00,26.0,13.2,29.48,North,32767,0.0,0.0,58,0.00,,,0.00,0,Wunderground v.1.15,2015-03-29 10:18:00,
2015-03-29 06:24:00,25.9,13.9,29.48,North,32767,0.0,0.0,60,0.00,,,0.00,0,Wunderground v.1.15,2015-03-29 10:24:00,
2015-03-29 06:29:00,25.8,13.4,29.47,North,32767,0.0,0.0,59,0.00,,,0.00,0,Wunderground v.1.15,2015-03-29 10:29:00,
2015-03-29 06:34:00,25.7,12.9,29.48,North,32767,0.0,0.0,58,0.00,,,0.00,0,Wunderground v.1.15,2015-03-29 10:34:00,
2015-03-29 06:39:00,25.7,13.3,29.48,North,32767,0.0,0.0,59,0.00,,,0.00,0,Wunderground v.1.15,2015-03-29 10:39:00,
2015-03-29 06:44:00,25.7,13.3,29.49,North,32767,0.0,0.0,59,0.00,,,0.00,0,Wunderground v.1.15,2015-03-29 10:44:00,
2015-03-29 06:50:00,25.6,13.2,29.48,North,32767,0.0,0.0,59,0.00,,,0.00,0,Wunderground v.1.15,2015-03-29 10:50:00,
2015-03-29 06:55:00,25.5,13.1,29.50,North,32767,0.0,0.0,59,0.00,,,0.00,0,Wunderground v.1.15,2015-03-29 10:55:00,
2015-03-29 07:00:00,25.3,13.0,29.50,North,32767,0.0,0.0,59,0.00,,,0.00,0,Wunderground v.1.15,2015-03-29 11:00:00,
2015-03-29 07:06:00,25.2,13.6,29.50,North,32767,0.0,0.0,61,0.00,,,0.00,0,Wunderground v.1.15,2015-03-29 11:06:00,
2015-03-29 07:12:00,25.3,14.1,29.50,North,32767,0.0,0.0,62,0.00,,,0.00,5,Wunderground v.1.15,2015-03-29 11:12:00,
2015-03-29 07:17:00,25.4,13.8,29.51,North,32767,0.0,0.0,61,0.00,,,0.00,9,Wunderground v.1.15,2015-03-29 11:17:00,
2015-03-29 07:22:00,25.4,14.2,29.51,North,32767,0.0,0.0,62,0.00,,,0.00,12,Wunderground v.1.15,2015-03-29 11:22:00,
2015-03-29 07:27:00,25.5,13.9,29.51,North,32767,0.0,0.0,61,0.00,,,0.00,16,Wunderground v.1.15,2015-03-29 11:27:00,
2015-03-29 07:32:00,25.6,13.2,29.51,North,32767,0.0,0.0,59,0.00,,,0.00,18,Wunderground v.1.15,2015-03-29 11:32:00,
2015-03-29 07:38:00,25.9,12.7,29.52,North,32767,0.0,0.0,57,0.00,,,0.00,21,Wunderground v.1.15,2015-03-29 11:38:00,
2015-03-29 07:43:00,26.2,12.6,29.52,North,32767,0.0,0.0,56,0.00,,,0.00,25,Wunderground v.1.15,2015-03-29 11:43:00,
2015-03-29 07:48:00,26.9,12.5,29.52,North,32767,0.0,0.0,54,0.00,,,0.00,26,Wunderground v.1.15,2015-03-29 11:48:00,
2015-03-29 07:54:00,27.6,12.7,29.51,North,32767,0.0,0.0,53,0.00,,,0.00,51,Wunderground v.1.15,2015-03-29 11:54:00,
2015-03-29 08:00:00,28.3,12.5,29.52,North,32767,0.0,0.0,51,0.00,,,0.00,153,Wunderground v.1.15,2015-03-29 12:00:00,
2015-03-29 08:06:00,28.7,12.4,29.52,North,32767,0.0,0.0,50,0.00,,,0.00,181,Wunderground v.1.15,2015-03-29 12:06:00,
2015-03-29 08:11:00,28.9,12.6,29.53,North,32767,0.0,0.0,50,0.00,,,0.00,204,Wunderground v.1.15,2015-03-29 12:11:00,
2015-03-29 08:16:00,29.3,12.9,29.52,North,32767,0.0,0.0,50,0.00,,,0.00,227,Wunderground v.1.15,2015-03-29 12:16:00,
2015-03-29 08:21:00,29.9,13.0,29.53,North,32767,0.0,0.0,49,0.00,,,0.00,248,Wunderground v.1.15,2015-03-29 12:21:00,
2015-03-29 08:27:00,30.2,12.8,29.53,North,32767,0.0,0.0,48,0.00,,,0.00,272,Wunderground v.1.15,2015-03-29 12:27:00,
2015-03-29 08:32:00,30.5,13.1,29.53,North,32767,0.0,0.0,48,0.00,,,0.00,292,Wunderground v.1.15,2015-03-29 12:32:00,
2015-03-29 08:38:00,30.7,13.3,29.53,North,32767,0.0,0.0,48,0.00,,,0.00,311,Wunderground v.1.15,2015-03-29 12:38:00,
2015-03-29 08:43:00,30.9,13.5,29.54,North,32767,0.0,0.0,48,0.00,,,0.00,327,Wunderground v.1.15,2015-03-29 12:43:00,
2015-03-29 08:49:00,31.4,13.5,29.55,North,32767,0.0,0.0,47,0.00,,,0.00,359,Wunderground v.1.15,2015-03-29 12:49:00,
2015-03-29 08:54:00,31.9,12.9,29.54,North,32767,0.0,0.0,45,0.00,,,0.00,378,Wunderground v.1.15,2015-03-29 12:54:00,
2015-03-29 08:59:00,32.5,13.5,29.54,North,32767,0.0,0.0,45,0.00,,,0.00,396,Wunderground v.1.15,2015-03-29 12:59:00,
2015-03-29 09:05:00,33.3,14.2,29.55,North,32767,0.0,0.0,45,0.00,,,0.00,415,Wunderground v.1.15,2015-03-29 13:05:00,
2015-03-29 09:10:00,33.6,13.5,29.55,North,32767,0.0,0.0,43,0.00,,,0.00,434,Wunderground v.1.15,2015-03-29 13:10:00,
2015-03-29 09:16:00,34.1,12.8,29.55,North,32767,0.0,0.0,41,0.00,,,0.00,457,Wunderground v.1.15,2015-03-29 13:16:00,
2015-03-29 09:21:00,34.4,12.5,29.54,North,32767,0.0,0.0,40,0.00,,,0.00,475,Wunderground v.1.15,2015-03-29 13:21:00,
2015-03-29 09:26:00,34.7,12.2,29.55,North,32767,0.0,0.0,39,0.00,,,0.00,492,Wunderground v.1.15,2015-03-29 13:26:00,
2015-03-29 09:31:00,34.9,11.8,29.56,North,32767,0.0,0.0,38,0.00,,,0.00,510,Wunderground v.1.15,2015-03-29 13:31:00,
2015-03-29 09:38:00,35.5,11.8,29.56,North,32767,0.0,0.0,37,0.00,,,0.00,533,Wunderground v.1.15,2015-03-29 13:38:00,
2015-03-29 09:44:00,36.0,11.6,29.56,North,32767,0.0,0.0,36,0.00,,,0.00,552,Wunderground v.1.15,2015-03-29 13:44:00,
2015-03-29 09:49:00,36.3,11.9,29.55,North,32767,0.0,0.0,36,0.00,,,0.00,568,Wunderground v.1.15,2015-03-29 13:49:00,
2015-03-29 09:54:00,36.7,10.3,29.57,North,32767,0.0,0.0,33,0.00,,,0.00,585,Wunderground v.1.15,2015-03-29 13:54:00,
2015-03-29 10:00:00,36.8,11.7,29.57,North,32767,0.0,0.0,35,0.00,,,0.00,594,Wunderground v.1.15,2015-03-29 14:00:00,
2015-03-29 10:06:00,37.5,11.0,29.57,North,32767,0.0,0.0,33,0.00,,,0.00,621,Wunderground v.1.15,2015-03-29 14:06:00,
2015-03-29 10:12:00,37.9,10.6,29.57,North,32767,0.0,0.0,32,0.00,,,0.00,635,Wunderground v.1.15,2015-03-29 14:12:00,
2015-03-29 10:18:00,38.1,10.1,29.56,North,32767,0.0,0.0,31,0.00,,,0.00,650,Wunderground v.1.15,2015-03-29 14:18:00,
2015-03-29 10:23:00,38.4,9.6,29.57,North,32767,0.0,0.0,30,0.00,,,0.00,668,Wunderground v.1.15,2015-03-29 14:23:00,
2015-03-29 10:28:00,38.8,8.4,29.57,North,32767,0.0,0.0,28,0.00,,,0.00,684,Wunderground v.1.15,2015-03-29 14:28:00,
2015-03-29 10:33:00,39.0,10.1,29.57,North,32767,0.0,0.0,30,0.00,,,0.00,698,Wunderground v.1.15,2015-03-29 14:33:00,
2015-03-29 10:39:00,39.6,10.7,29.56,North,32767,0.0,0.0,30,0.00,,,0.00,708,Wunderground v.1.15,2015-03-29 14:39:00,
2015-03-29 10:46:00,39.7,9.2,29.57,North,32767,0.0,0.0,28,0.00,,,0.00,726,Wunderground v.1.15,2015-03-29 14:46:00,
2015-03-29 10:52:00,40.2,10.4,29.56,North,32767,0.0,0.0,29,0.00,,,0.00,745,Wunderground v.1.15,2015-03-29 14:52:00,
2015-03-29 10:57:00,40.5,9.1,29.56,North,32767,0.0,0.0,27,0.00,,,0.00,754,Wunderground v.1.15,2015-03-29 14:57:00,
2015-03-29 11:03:00,41.0,9.5,29.55,North,32767,0.0,0.0,27,0.00,,,0.00,770,Wunderground v.1.15,2015-03-29 15:03:00,
2015-03-29 11:08:00,41.2,8.8,29.56,North,32767,0.0,0.0,26,0.00,,,0.00,780,Wunderground v.1.15,2015-03-29 15:08:00,
2015-03-29 11:14:00,41.8,8.5,29.55,North,32767,0.0,0.0,25,0.00,,,0.00,791,Wunderground v.1.15,2015-03-29 15:14:00,
2015-03-29 11:19:00,42.2,6.0,29.54,North,32767,0.0,0.0,22,0.00,,,0.00,803,Wunderground v.1.15,2015-03-29 15:19:00,
2015-03-29 11:24:00,42.4,6.2,29.54,North,32767,0.0,0.0,22,0.00,,,0.00,814,Wunderground v.1.15,2015-03-29 15:24:00,
2015-03-29 11:30:00,42.4,5.2,29.56,North,32767,0.0,0.0,21,0.00,,,0.00,824,Wunderground v.1.15,2015-03-29 15:30:00,
2015-03-29 11:35:00,42.2,6.0,29.55,North,32767,0.0,0.0,22,0.00,,,0.00,831,Wunderground v.1.15,2015-03-29 15:35:00,
2015-03-29 11:40:00,42.3,7.1,29.54,North,32767,0.0,0.0,23,0.00,,,0.00,842,Wunderground v.1.15,2015-03-29 15:40:00,
2015-03-29 11:45:00,42.7,7.4,29.54,North,32767,0.0,0.0,23,0.00,,,0.00,847,Wunderground v.1.15,2015-03-29 15:45:00,
2015-03-29 11:51:00,43.1,6.8,29.54,North,32767,0.0,0.0,22,0.00,,,0.00,853,Wunderground v.1.15,2015-03-29 15:51:00,
2015-03-29 11:57:00,44.0,7.5,29.54,North,32767,0.0,0.0,22,0.00,,,0.00,863,Wunderground v.1.15,2015-03-29 15:57:00,
2015-03-29 12:03:00,44.2,7.7,29.53,North,32767,0.0,0.0,22,0.00,,,0.00,870,Wunderground v.1.15,2015-03-29 16:03:00,
2015-03-29 12:08:00,44.0,5.4,29.53,North,32767,0.0,0.0,20,0.00,,,0.00,874,Wunderground v.1.15,2015-03-29 16:08:00,
2015-03-29 12:14:00,43.8,6.3,29.54,North,32767,0.0,0.0,21,0.00,,,0.00,881,Wunderground v.1.15,2015-03-29 16:14:00,
2015-03-29 12:19:00,44.0,7.5,29.54,North,32767,0.0,0.0,22,0.00,,,0.00,886,Wunderground v.1.15,2015-03-29 16:19:00,
2015-03-29 12:24:00,44.2,7.7,29.52,North,32767,0.0,0.0,22,0.00,,,0.00,888,Wunderground v.1.15,2015-03-29 16:24:00,
2015-03-29 12:29:00,44.7,8.1,29.53,North,32767,0.0,0.0,22,0.00,,,0.00,893,Wunderground v.1.15,2015-03-29 16:29:00,
2015-03-29 12:34:00,44.8,8.2,29.52,North,32767,0.0,0.0,22,0.00,,,0.00,896,Wunderground v.1.15,2015-03-29 16:34:00,
2015-03-29 12:39:00,45.1,6.3,29.52,North,32767,0.0,0.0,20,0.00,,,0.00,898,Wunderground v.1.15,2015-03-29 16:39:00,
2015-03-29 12:45:00,45.2,8.5,29.52,North,32767,0.0,0.0,22,0.00,,,0.00,898,Wunderground v.1.15,2015-03-29 16:45:00,
2015-03-29 12:50:00,45.6,7.8,29.50,North,32767,0.0,0.0,21,0.00,,,0.00,907,Wunderground v.1.15,2015-03-29 16:50:00,
2015-03-29 12:56:00,46.2,7.3,29.51,North,32767,0.0,0.0,20,0.00,,,0.00,905,Wunderground v.1.15,2015-03-29 16:56:00,
2015-03-29 13:01:00,46.4,7.4,29.51,North,32767,0.0,0.0,20,0.00,,,0.00,907,Wunderground v.1.15,2015-03-29 17:01:00,
2015-03-29 13:06:00,47.1,8.0,29.49,North,32767,0.0,0.0,20,0.00,,,0.00,905,Wunderground v.1.15,2015-03-29 17:06:00,
2015-03-29 13:12:00,46.9,6.7,29.50,North,32767,0.0,0.0,19,0.00,,,0.00,907,Wunderground v.1.15,2015-03-29 17:12:00,
2015-03-29 13:17:00,47.0,7.9,29.50,North,32767,0.0,0.0,20,0.00,,,0.00,907,Wunderground v.1.15,2015-03-29 17:17:00,
2015-03-29 13:22:00,47.0,9.0,29.50,North,32767,0.0,0.0,21,0.00,,,0.00,902,Wunderground v.1.15,2015-03-29 17:22:00,
2015-03-29 13:28:00,47.2,8.1,29.49,North,32767,0.0,0.0,20,0.00,,,0.00,900,Wunderground v.1.15,2015-03-29 17:28:00,
2015-03-29 13:33:00,47.7,7.4,29.49,North,32767,0.0,0.0,19,0.00,,,0.00,904,Wunderground v.1.15,2015-03-29 17:33:00,
2015-03-29 13:38:00,48.1,8.8,29.49,North,32767,0.0,0.0,20,0.00,,,0.00,898,Wunderground v.1.15,2015-03-29 17:38:00,
2015-03-29 13:43:00,49.2,9.8,29.49,North,32767,0.0,0.0,20,0.00,,,0.00,895,Wunderground v.1.15,2015-03-29 17:43:00,
2015-03-29 13:48:00,48.8,9.4,29.48,North,32767,0.0,0.0,20,0.00,,,0.00,889,Wunderground v.1.15,2015-03-29 17:48:00,
2015-03-29 13:53:00,48.9,9.5,29.47,North,32767,0.0,0.0,20,0.00,,,0.00,886,Wunderground v.1.15,2015-03-29 17:53:00,
2015-03-29 13:58:00,49.0,9.6,29.47,North,32767,0.0,0.0,20,0.00,,,0.00,882,Wunderground v.1.15,2015-03-29 17:58:00,
2015-03-29 14:05:00,49.3,7.5,29.47,North,32767,0.0,0.0,18,0.00,,,0.00,875,Wunderground v.1.15,2015-03-29 18:05:00,
2015-03-29 14:10:00,48.8,10.5,29.47,North,32767,0.0,0.0,21,0.00,,,0.00,872,Wunderground v.1.15,2015-03-29 18:10:00,
2015-03-29 14:17:00,49.5,8.9,29.47,North,32767,0.0,0.0,19,0.00,,,0.00,863,Wunderground v.1.15,2015-03-29 18:17:00,
2015-03-29 14:23:00,49.9,9.2,29.47,North,32767,0.0,0.0,19,0.00,,,0.00,860,Wunderground v.1.15,2015-03-29 18:23:00,
2015-03-29 14:29:00,49.4,7.6,29.47,North,32767,0.0,0.0,18,0.00,,,0.00,847,Wunderground v.1.15,2015-03-29 18:29:00,
2015-03-29 14:34:00,49.5,7.7,29.46,North,32767,0.0,0.0,18,0.00,,,0.00,842,Wunderground v.1.15,2015-03-29 18:34:00,
2015-03-29 14:39:00,49.7,9.0,29.47,North,32767,0.0,0.0,19,0.00,,,0.00,833,Wunderground v.1.15,2015-03-29 18:39:00,
2015-03-29 14:44:00,50.3,10.7,29.47,North,32767,0.0,0.0,20,0.00,,,0.00,833,Wunderground v.1.15,2015-03-29 18:44:00,
2015-03-29 14:50:00,50.4,10.8,29.46,North,32767,0.0,0.0,20,0.00,,,0.00,833,Wunderground v.1.15,2015-03-29 18:50:00,
2015-03-29 14:56:00,50.7,9.9,29.45,North,32767,0.0,0.0,19,0.00,,,0.00,812,Wunderground v.1.15,2015-03-29 18:56:00,
2015-03-29 15:02:00,50.3,8.3,29.46,North,32767,0.0,0.0,18,0.00,,,0.00,766,Wunderground v.1.15,2015-03-29 19:02:00,
2015-03-29 15:08:00,50.9,10.0,29.46,North,32767,0.0,0.0,19,0.00,,,0.00,754,Wunderground v.1.15,2015-03-29 19:08:00,
2015-03-29 15:13:00,51.4,9.2,29.45,North,32767,0.0,0.0,18,0.00,,,0.00,765,Wunderground v.1.15,2015-03-29 19:13:00,
2015-03-29 15:19:00,51.5,10.5,29.44,North,32767,0.0,0.0,19,0.00,,,0.00,751,Wunderground v.1.15,2015-03-29 19:19:00,
2015-03-29 15:25:00,51.2,9.1,29.45,North,32767,0.0,0.0,18,0.00,,,0.00,745,Wunderground v.1.15,2015-03-29 19:25:00,
2015-03-29 15:30:00,51.3,9.2,29.45,North,32767,0.0,0.0,18,0.00,,,0.00,650,Wunderground v.1.15,2015-03-29 19:30:00,
2015-03-29 15:36:00,51.8,11.9,29.44,North,32767,0.0,0.0,20,0.00,,,0.00,696,Wunderground v.1.15,2015-03-29 19:36:00,
2015-03-29 15:41:00,51.7,9.5,29.44,North,32767,0.0,0.0,18,0.00,,,0.00,719,Wunderground v.1.15,2015-03-29 19:41:00,
2015-03-29 15:47:00,52.0,10.9,29.44,North,32767,0.0,0.0,19,0.00,,,0.00,679,Wunderground v.1.15,2015-03-29 19:47:00,
2015-03-29 15:52:00,52.5,11.4,29.44,North,32767,0.0,0.0,19,0.00,,,0.00,689,Wunderground v.1.15,2015-03-29 19:52:00,
2015-03-29 15:58:00,53.1,13.0,29.42,North,32767,0.0,0.0,20,0.00,,,0.00,675,Wunderground v.1.15,2015-03-29 19:58:00,
2015-03-29 16:03:00,53.0,10.6,29.43,North,32767,0.0,0.0,18,0.00,,,0.00,657,Wunderground v.1.15,2015-03-29 20:03:00,
2015-03-29 16:09:00,53.4,15.4,29.43,North,32767,0.0,0.0,22,0.00,,,0.00,622,Wunderground v.1.15,2015-03-29 20:09:00,
2015-03-29 16:14:00,53.9,14.8,29.43,North,32767,0.0,0.0,21,0.00,,,0.00,552,Wunderground v.1.15,2015-03-29 20:14:00,
2015-03-29 16:19:00,53.5,13.4,29.42,North,32767,0.0,0.0,20,0.00,,,0.00,596,Wunderground v.1.15,2015-03-29 20:19:00,
2015-03-29 16:24:00,52.9,11.7,29.42,North,32767,0.0,0.0,19,0.00,,,0.00,584,Wunderground v.1.15,2015-03-29 20:24:00,
2015-03-29 16:30:00,52.8,11.6,29.43,North,32767,0.0,0.0,19,0.00,,,0.00,548,Wunderground v.1.15,2015-03-29 20:30:00,
2015-03-29 16:36:00,53.2,11.9,29.43,North,32767,0.0,0.0,19,0.00,,,0.00,573,Wunderground v.1.15,2015-03-29 20:36:00,
2015-03-29 16:41:00,54.0,12.6,29.43,North,32767,0.0,0.0,19,0.00,,,0.00,492,Wunderground v.1.15,2015-03-29 20:41:00,
2015-03-29 16:46:00,53.4,10.9,29.41,North,32767,0.0,0.0,18,0.00,,,0.00,533,Wunderground v.1.15,2015-03-29 20:46:00,
2015-03-29 16:51:00,52.9,10.5,29.42,North,32767,0.0,0.0,18,0.00,,,0.00,504,Wunderground v.1.15,2015-03-29 20:51:00,
2015-03-29 16:57:00,53.3,10.8,29.42,North,32767,0.0,0.0,18,0.00,,,0.00,504,Wunderground v.1.15,2015-03-29 20:57:00,
2015-03-29 17:02:00,53.7,11.1,29.41,North,32767,0.0,0.0,18,0.00,,,0.00,431,Wunderground v.1.15,2015-03-29 21:02:00,
2015-03-29 17:09:00,53.1,13.0,29.41,North,32767,0.0,0.0,20,0.00,,,0.00,439,Wunderground v.1.15,2015-03-29 21:09:00,
2015-03-29 17:15:00,53.7,13.5,29.42,North,32767,0.0,0.0,20,0.00,,,0.00,404,Wunderground v.1.15,2015-03-29 21:15:00,
2015-03-29 17:20:00,53.1,11.9,29.42,North,32767,0.0,0.0,19,0.00,,,0.00,399,Wunderground v.1.15,2015-03-29 21:20:00,
2015-03-29 17:25:00,53.2,14.2,29.41,North,32767,0.0,0.0,21,0.00,,,0.00,380,Wunderground v.1.15,2015-03-29 21:25:00,
2015-03-29 17:31:00,54.0,13.8,29.39,North,32767,0.0,0.0,20,0.00,,,0.00,360,Wunderground v.1.15,2015-03-29 21:31:00,
2015-03-29 17:38:00,53.8,13.6,29.41,North,32767,0.0,0.0,20,0.00,,,0.00,334,Wunderground v.1.15,2015-03-29 21:38:00,
2015-03-29 17:44:00,53.4,13.3,29.41,North,32767,0.0,0.0,20,0.00,,,0.00,325,Wunderground v.1.15,2015-03-29 21:44:00,
2015-03-29 17:49:00,53.7,15.7,29.41,North,32767,0.0,0.0,22,0.00,,,0.00,297,Wunderground v.1.15,2015-03-29 21:49:00,
2015-03-29 17:54:00,53.3,13.2,29.39,North,32767,0.0,0.0,20,0.00,,,0.00,278,Wunderground v.1.15,2015-03-29 21:54:00,
2015-03-29 18:00:00,53.9,13.7,29.40,North,32767,0.0,0.0,20,0.00,,,0.00,255,Wunderground v.1.15,2015-03-29 22:00:00,
2015-03-29 18:05:00,53.9,13.7,29.40,North,32767,0.0,0.0,20,0.00,,,0.00,237,Wunderground v.1.15,2015-03-29 22:05:00,
2015-03-29 18:11:00,53.6,14.5,29.40,North,32767,0.0,0.0,21,0.00,,,0.00,220,Wunderground v.1.15,2015-03-29 22:11:00,
2015-03-29 18:16:00,53.4,13.3,29.39,North,32767,0.0,0.0,20,0.00,,,0.00,199,Wunderground v.1.15,2015-03-29 22:16:00,
2015-03-29 18:21:00,53.1,14.1,29.40,North,32767,0.0,0.0,21,0.00,,,0.00,178,Wunderground v.1.15,2015-03-29 22:21:00,
2015-03-29 18:26:00,53.1,15.2,29.40,North,32767,0.0,0.0,22,0.00,,,0.00,158,Wunderground v.1.15,2015-03-29 22:26:00,
2015-03-29 18:32:00,53.0,16.1,29.40,North,32767,0.0,0.0,23,0.00,,,0.00,77,Wunderground v.1.15,2015-03-29 22:32:00,
2015-03-29 18:38:00,52.9,16.1,29.38,North,32767,0.0,0.0,23,0.00,,,0.00,77,Wunderground v.1.15,2015-03-29 22:38:00,